Time,TemperatureF,DewpointF,PressureIn,WindDirection,WindDirectionDegrees,WindSpeedMPH,WindSpeedGustMPH,Humidity,HourlyPrecipIn,Conditions,Clouds,dailyrainin,SoftwareType,DateUTC
2013-10-21 00:01:00,49.9,37.0,30.09,West,274,0.0,0.0,61,0.00,,---,0.00,VWS V14.01,2013-10-21 04:01:00,
2013-10-21 00:02:00,49.8,36.5,30.09,West,274,0.0,0.0,60,0.00,,---,0.00,VWS V14.01,2013-10-21 04:02:00,
2013-10-21 00:07:00,49.7,36.8,30.09,West,274,0.0,0.0,61,0.00,,---,0.00,VWS V14.01,2013-10-21 04:07:00,
2013-10-21 00:12:00,49.5,36.6,30.10,West,275,0.0,0.0,61,0.00,,---,0.00,VWS V14.01,2013-10-21 04:12:00,
2013-10-21 00:17:00,49.5,36.2,30.10,West,269,0.0,0.0,60,0.00,,---,0.00,VWS V14.01,2013-10-21 04:17:00,
2013-10-21 00:23:00,49.8,36.5,30.09,West,262,0.0,0.0,60,0.00,,---,0.00,VWS V14.01,2013-10-21 04:23:00,
2013-10-21 00:28:00,49.9,36.2,30.09,West,260,0.0,0.0,59,0.00,,---,0.00,VWS V14.01,2013-10-21 04:28:00,
2013-10-21 00:33:00,50.0,36.2,30.09,West,260,0.0,0.0,59,0.00,,---,0.00,VWS V14.01,2013-10-21 04:33:00,
2013-10-21 00:38:00,49.9,36.6,30.09,West,260,0.0,0.0,60,0.00,,---,0.00,VWS V14.01,2013-10-21 04:38:00,
2013-10-21 00:43:00,49.8,36.9,30.09,West,260,0.0,0.0,61,0.00,,---,0.00,VWS V14.01,2013-10-21 04:43:00,
2013-10-21 00:48:00,49.7,36.4,30.09,WSW,253,0.0,0.0,60,0.00,,---,0.00,VWS V14.01,2013-10-21 04:48:00,
2013-10-21 00:53:00,49.6,36.7,30.09,West,263,0.0,0.0,61,0.00,,---,0.00,VWS V14.01,2013-10-21 04:53:00,
2013-10-21 00:58:00,49.6,36.3,30.09,West,263,0.0,0.0,60,0.00,,---,0.00,VWS V14.01,2013-10-21 04:58:00,
2013-10-21 01:03:00,49.6,36.7,30.09,West,259,0.0,0.0,61,0.00,,---,0.00,VWS V14.01,2013-10-21 05:03:00,
2013-10-21 01:08:00,49.6,36.3,30.09,WSW,257,0.0,0.0,60,0.00,,---,0.00,VWS V14.01,2013-10-21 05:08:00,
2013-10-21 01:13:00,49.7,36.4,30.09,WSW,257,0.0,0.0,60,0.00,,---,0.00,VWS V14.01,2013-10-21 05:13:00,
2013-10-21 01:18:00,49.9,36.2,30.09,West,266,0.0,0.0,59,0.00,,---,0.00,VWS V14.01,2013-10-21 05:18:00,
2013-10-21 01:23:00,50.0,36.7,30.09,WSW,252,0.0,0.0,60,0.00,,---,0.00,VWS V14.01,2013-10-21 05:23:00,
2013-10-21 01:28:00,49.9,36.2,30.09,WSW,252,0.0,0.0,59,0.00,,---,0.00,VWS V14.01,2013-10-21 05:28:00,
2013-10-21 01:33:00,49.9,36.2,30.09,SW,233,0.0,0.0,59,0.00,,---,0.00,VWS V14.01,2013-10-21 05:33:00,
2013-10-21 01:38:00,50.0,35.8,30.09,West,270,0.0,0.0,58,0.00,,---,0.00,VWS V14.01,2013-10-21 05:38:00,
2013-10-21 01:44:00,50.0,35.8,30.09,West,266,0.0,0.0,58,0.00,,---,0.00,VWS V14.01,2013-10-21 05:44:00,
2013-10-21 01:49:00,50.0,36.2,30.09,West,270,0.0,0.0,59,0.00,,---,0.00,VWS V14.01,2013-10-21 05:49:00,
2013-10-21 01:54:00,50.1,35.9,30.10,WSW,255,0.0,0.0,58,0.00,,---,0.00,VWS V14.01,2013-10-21 05:54:00,
2013-10-21 01:59:00,50.1,36.3,30.10,West,269,0.0,0.0,59,0.00,,---,0.00,VWS V14.01,2013-10-21 05:59:00,
2013-10-21 02:04:00,50.2,36.0,30.10,West,274,0.0,0.0,58,0.00,,---,0.00,VWS V14.01,2013-10-21 06:04:00,
2013-10-21 02:09:00,50.2,36.4,30.10,WSW,255,0.0,0.0,59,0.00,,---,0.00,VWS V14.01,2013-10-21 06:09:00,
2013-10-21 02:14:00,50.1,36.3,30.09,West,259,0.0,0.0,59,0.00,,---,0.00,VWS V14.01,2013-10-21 06:14:00,
2013-10-21 02:19:00,50.0,36.2,30.10,West,260,0.0,0.0,59,0.00,,---,0.00,VWS V14.01,2013-10-21 06:19:00,
2013-10-21 02:24:00,50.0,36.7,30.10,WNW,284,0.0,0.0,60,0.00,,---,0.00,VWS V14.01,2013-10-21 06:24:00,
2013-10-21 02:29:00,49.7,40.0,30.10,WNW,283,0.0,0.0,69,0.00,,---,0.00,VWS V14.01,2013-10-21 06:29:00,
2013-10-21 02:34:00,49.1,37.1,30.10,WNW,283,0.0,0.0,63,0.00,,---,0.00,VWS V14.01,2013-10-21 06:34:00,
2013-10-21 02:39:00,48.8,39.1,30.10,WNW,283,0.0,0.0,69,0.00,,---,0.00,VWS V14.01,2013-10-21 06:39:00,
2013-10-21 02:44:00,48.5,38.8,30.10,WNW,284,0.0,0.0,69,0.00,,---,0.00,VWS V14.01,2013-10-21 06:44:00,
2013-10-21 02:49:00,48.2,37.8,30.10,WNW,283,0.0,0.0,67,0.00,,---,0.00,VWS V14.01,2013-10-21 06:49:00,
2013-10-21 02:54:00,48.0,37.2,30.10,WNW,284,0.0,0.0,66,0.00,,---,0.00,VWS V14.01,2013-10-21 06:54:00,
2013-10-21 02:59:00,47.9,37.1,30.10,WNW,284,0.0,0.0,66,0.00,,---,0.00,VWS V14.01,2013-10-21 06:59:00,
2013-10-21 03:04:00,47.7,36.5,30.10,WNW,284,0.0,0.0,65,0.00,,---,0.00,VWS V14.01,2013-10-21 07:04:00,
2013-10-21 03:09:00,47.6,36.0,30.10,West,281,0.0,0.0,64,0.00,,---,0.00,VWS V14.01,2013-10-21 07:09:00,
2013-10-21 03:15:00,47.5,35.5,30.10,West,281,0.0,0.0,63,0.00,,---,0.00,VWS V14.01,2013-10-21 07:15:00,
2013-10-21 03:20:00,47.4,35.8,30.10,West,281,0.0,0.0,64,0.00,,---,0.00,VWS V14.01,2013-10-21 07:20:00,
2013-10-21 03:25:00,47.2,35.7,30.10,West,281,0.0,0.0,64,0.00,,---,0.00,VWS V14.01,2013-10-21 07:25:00,
2013-10-21 03:30:00,47.2,36.0,30.10,West,281,0.0,0.0,65,0.00,,---,0.00,VWS V14.01,2013-10-21 07:30:00,
2013-10-21 03:35:00,47.0,35.9,30.10,West,281,0.0,0.0,65,0.00,,---,0.00,VWS V14.01,2013-10-21 07:35:00,
2013-10-21 03:40:00,46.7,36.0,30.10,West,281,0.0,0.0,66,0.00,,---,0.00,VWS V14.01,2013-10-21 07:40:00,
2013-10-21 03:45:00,46.5,36.5,30.10,West,281,0.0,0.0,68,0.00,,---,0.00,VWS V14.01,2013-10-21 07:45:00,
2013-10-21 03:50:00,46.2,36.6,30.10,West,281,0.0,0.0,69,0.00,,---,0.00,VWS V14.01,2013-10-21 07:50:00,
2013-10-21 03:55:00,46.0,36.4,30.10,West,281,0.0,0.0,69,0.00,,---,0.00,VWS V14.01,2013-10-21 07:55:00,
2013-10-21 04:00:00,46.0,36.0,30.10,West,281,0.0,0.0,68,0.00,,---,0.00,VWS V14.01,2013-10-21 08:00:00,
2013-10-21 04:05:00,46.0,36.8,30.10,West,281,0.0,0.0,70,0.00,,---,0.00,VWS V14.01,2013-10-21 08:05:00,
2013-10-21 04:10:00,46.0,36.4,30.11,West,281,0.0,0.0,69,0.00,,---,0.00,VWS V14.01,2013-10-21 08:10:00,
2013-10-21 04:15:00,46.0,36.8,30.10,West,281,0.0,0.0,70,0.00,,---,0.00,VWS V14.01,2013-10-21 08:15:00,
2013-10-21 04:20:00,45.9,36.7,30.10,West,281,0.0,0.0,70,0.00,,---,0.00,VWS V14.01,2013-10-21 08:20:00,
2013-10-21 04:25:00,45.9,36.7,30.10,West,281,0.0,0.0,70,0.00,,---,0.00,VWS V14.01,2013-10-21 08:25:00,
2013-10-21 04:30:00,45.9,37.0,30.10,West,281,0.0,0.0,71,0.00,,---,0.00,VWS V14.01,2013-10-21 08:30:00,
2013-10-21 04:36:00,45.9,37.0,30.10,West,281,0.0,0.0,71,0.00,,---,0.00,VWS V14.01,2013-10-21 08:36:00,
2013-10-21 04:41:00,45.8,37.7,30.10,West,281,0.0,0.0,73,0.00,,---,0.00,VWS V14.01,2013-10-21 08:41:00,
2013-10-21 04:46:00,45.8,38.0,30.10,West,281,0.0,0.0,74,0.00,,---,0.00,VWS V14.01,2013-10-21 08:46:00,
2013-10-21 04:51:00,45.6,36.8,30.10,West,281,0.0,0.0,71,0.00,,---,0.00,VWS V14.01,2013-10-21 08:51:00,
2013-10-21 04:56:00,45.5,36.7,30.10,West,281,0.0,0.0,71,0.00,,---,0.00,VWS V14.01,2013-10-21 08:56:00,
2013-10-21 05:01:00,45.5,37.0,30.10,West,281,0.0,0.0,72,0.00,,---,0.00,VWS V14.01,2013-10-21 09:01:00,
2013-10-21 05:06:00,45.5,36.7,30.10,West,281,0.0,0.0,71,0.00,,---,0.00,VWS V14.01,2013-10-21 09:06:00,
2013-10-21 05:11:00,45.5,36.7,30.10,West,281,0.0,0.0,71,0.00,,---,0.00,VWS V14.01,2013-10-21 09:11:00,
2013-10-21 05:17:00,45.5,36.3,30.11,West,281,0.0,0.0,70,0.00,,---,0.00,VWS V14.01,2013-10-21 09:17:00,
2013-10-21 05:22:00,45.5,37.0,30.11,West,281,0.0,0.0,72,0.00,,---,0.00,VWS V14.01,2013-10-21 09:22:00,
2013-10-21 05:27:00,45.5,37.4,30.11,West,281,0.0,0.0,73,0.00,,---,0.00,VWS V14.01,2013-10-21 09:27:00,
2013-10-21 05:32:00,45.6,37.1,30.11,West,281,0.0,0.0,72,0.00,,---,0.00,VWS V14.01,2013-10-21 09:32:00,
2013-10-21 05:37:00,45.7,36.8,30.11,West,281,0.0,0.0,71,0.00,,---,0.00,VWS V14.01,2013-10-21 09:37:00,
2013-10-21 05:42:00,45.8,36.6,30.11,West,281,0.0,0.0,70,0.00,,---,0.00,VWS V14.01,2013-10-21 09:42:00,
2013-10-21 05:47:00,45.8,37.0,30.11,WNW,282,0.0,0.0,71,0.00,,---,0.00,VWS V14.01,2013-10-21 09:47:00,
2013-10-21 05:52:00,45.8,37.0,30.11,West,281,0.0,0.0,71,0.00,,---,0.00,VWS V14.01,2013-10-21 09:52:00,
2013-10-21 05:57:00,45.7,36.5,30.12,West,281,0.0,0.0,70,0.00,,---,0.00,VWS V14.01,2013-10-21 09:57:00,
2013-10-21 06:02:00,45.5,37.0,30.12,West,281,0.0,0.0,72,0.00,,---,0.00,VWS V14.01,2013-10-21 10:02:00,
2013-10-21 06:07:00,45.3,36.8,30.12,West,281,0.0,0.0,72,0.00,,---,0.00,VWS V14.01,2013-10-21 10:07:00,
2013-10-21 06:12:00,45.3,36.8,30.12,West,281,0.0,0.0,72,0.00,,---,0.00,VWS V14.01,2013-10-21 10:12:00,
2013-10-21 06:17:00,45.2,36.7,30.12,West,281,0.0,0.0,72,0.00,,---,0.00,VWS V14.01,2013-10-21 10:17:00,
2013-10-21 06:23:00,45.1,36.3,30.12,West,281,0.0,0.0,71,0.00,,---,0.00,VWS V14.01,2013-10-21 10:23:00,
2013-10-21 06:28:00,45.3,36.5,30.12,West,281,0.0,0.0,71,0.00,,---,0.00,VWS V14.01,2013-10-21 10:28:00,
2013-10-21 06:33:00,45.3,36.5,30.12,West,281,0.0,0.0,71,0.00,,---,0.00,VWS V14.01,2013-10-21 10:33:00,
2013-10-21 06:38:00,45.4,37.3,30.12,West,281,0.0,0.0,73,0.00,,---,0.00,VWS V14.01,2013-10-21 10:38:00,
2013-10-21 06:43:00,45.4,36.6,30.12,West,281,0.0,0.0,71,0.00,,---,0.00,VWS V14.01,2013-10-21 10:43:00,
2013-10-21 06:48:00,45.3,36.5,30.12,West,281,0.0,0.0,71,0.00,,---,0.00,VWS V14.01,2013-10-21 10:48:00,
2013-10-21 06:53:00,45.3,36.8,30.12,West,281,0.0,0.0,72,0.00,,---,0.00,VWS V14.01,2013-10-21 10:53:00,
2013-10-21 06:58:00,45.3,36.8,30.12,West,281,0.0,0.0,72,0.00,,---,0.00,VWS V14.01,2013-10-21 10:58:00,
2013-10-21 07:03:00,45.2,37.1,30.12,West,281,0.0,0.0,73,0.00,,---,0.00,VWS V14.01,2013-10-21 11:03:00,
2013-10-21 07:08:00,45.2,36.7,30.12,West,281,0.0,0.0,72,0.00,,---,0.00,VWS V14.01,2013-10-21 11:08:00,
2013-10-21 07:13:00,45.2,37.1,30.13,WNW,282,0.0,0.0,73,0.00,,---,0.00,VWS V14.01,2013-10-21 11:13:00,
2013-10-21 07:19:00,45.1,36.6,30.12,West,281,0.0,0.0,72,0.00,,---,0.00,VWS V14.01,2013-10-21 11:19:00,
2013-10-21 07:24:00,45.1,37.3,30.12,West,281,0.0,0.0,74,0.00,,---,0.00,VWS V14.01,2013-10-21 11:24:00,
2013-10-21 07:29:00,45.0,37.2,30.12,West,281,0.0,0.0,74,0.00,,---,0.00,VWS V14.01,2013-10-21 11:29:00,
2013-10-21 07:34:00,45.0,37.2,30.12,West,281,0.0,0.0,74,0.00,,---,0.00,VWS V14.01,2013-10-21 11:34:00,
2013-10-21 07:39:00,45.0,37.2,30.12,West,281,0.0,0.0,74,0.00,,---,0.00,VWS V14.01,2013-10-21 11:39:00,
2013-10-21 07:44:00,45.1,38.7,30.12,West,281,0.0,0.0,78,0.00,,---,0.00,VWS V14.01,2013-10-21 11:44:00,
2013-10-21 07:49:00,45.1,37.7,30.13,West,281,0.0,0.0,75,0.00,,---,0.00,VWS V14.01,2013-10-21 11:49:00,
2013-10-21 07:54:00,45.1,37.7,30.13,West,281,0.0,0.0,75,0.00,,---,0.00,VWS V14.01,2013-10-21 11:54:00,
2013-10-21 07:59:00,45.1,38.0,30.13,West,281,0.0,0.0,76,0.00,,---,0.00,VWS V14.01,2013-10-21 11:59:00,
2013-10-21 08:04:00,45.1,37.7,30.13,West,281,0.0,0.0,75,0.00,,---,0.00,VWS V14.01,2013-10-21 12:04:00,
2013-10-21 08:09:00,45.2,37.8,30.13,West,281,0.0,0.0,75,0.00,,---,0.00,VWS V14.01,2013-10-21 12:09:00,
2013-10-21 08:14:00,45.4,38.6,30.13,West,281,0.0,0.0,77,0.00,,---,0.00,VWS V14.01,2013-10-21 12:14:00,
2013-10-21 08:19:00,45.7,38.2,30.13,West,281,0.0,0.0,75,0.00,,---,0.00,VWS V14.01,2013-10-21 12:19:00,
2013-10-21 08:24:00,46.0,38.5,30.13,West,281,0.0,0.0,75,0.00,,---,0.00,VWS V14.01,2013-10-21 12:24:00,
2013-10-21 08:30:00,46.5,39.7,30.13,West,281,0.0,0.0,77,0.00,,---,0.00,VWS V14.01,2013-10-21 12:30:00,
2013-10-21 08:35:00,47.3,40.1,30.13,West,281,0.0,0.0,76,0.00,,---,0.00,VWS V14.01,2013-10-21 12:35:00,
2013-10-21 08:40:00,47.9,42.0,30.13,West,281,0.0,0.0,80,0.00,,---,0.00,VWS V14.01,2013-10-21 12:40:00,
2013-10-21 08:45:00,48.1,42.2,30.14,West,281,0.0,0.0,80,0.00,,---,0.00,VWS V14.01,2013-10-21 12:45:00,
2013-10-21 08:50:00,48.6,42.7,30.14,West,281,0.0,0.0,80,0.00,,---,0.00,VWS V14.01,2013-10-21 12:50:00,
2013-10-21 08:55:00,49.1,42.9,30.14,West,281,0.0,0.0,79,0.00,,---,0.00,VWS V14.01,2013-10-21 12:55:00,
2013-10-21 09:00:00,49.6,43.4,30.14,West,281,0.0,0.0,79,0.00,,---,0.00,VWS V14.01,2013-10-21 13:00:00,
2013-10-21 09:05:00,49.9,42.7,30.14,West,281,0.0,0.0,76,0.00,,---,0.00,VWS V14.01,2013-10-21 13:05:00,
2013-10-21 09:10:00,49.8,42.5,30.14,West,281,0.0,0.0,76,0.00,,---,0.00,VWS V14.01,2013-10-21 13:10:00,
2013-10-21 09:15:00,49.9,43.0,30.14,West,281,0.0,0.0,77,0.00,,---,0.00,VWS V14.01,2013-10-21 13:15:00,
2013-10-21 09:20:00,50.1,43.2,30.14,West,281,0.0,0.0,77,0.00,,---,0.00,VWS V14.01,2013-10-21 13:20:00,
2013-10-21 09:25:00,50.3,43.4,30.14,West,281,0.0,0.0,77,0.00,,---,0.00,VWS V14.01,2013-10-21 13:25:00,
2013-10-21 09:31:00,51.1,44.2,30.13,West,281,0.0,0.0,77,0.00,,---,0.00,VWS V14.01,2013-10-21 13:31:00,
2013-10-21 09:36:00,51.9,44.6,30.13,West,281,0.0,0.0,76,0.00,,---,0.00,VWS V14.01,2013-10-21 13:36:00,
2013-10-21 09:41:00,51.8,44.5,30.13,West,281,0.0,0.0,76,0.00,,---,0.00,VWS V14.01,2013-10-21 13:41:00,
2013-10-21 09:46:00,51.7,44.0,30.13,West,280,0.0,0.0,75,0.00,,---,0.00,VWS V14.01,2013-10-21 13:46:00,
2013-10-21 09:51:00,51.8,43.8,30.13,WSW,252,0.0,0.0,74,0.00,,---,0.00,VWS V14.01,2013-10-21 13:51:00,
2013-10-21 09:56:00,52.0,43.3,30.13,WSW,250,0.0,0.0,72,0.00,,---,0.00,VWS V14.01,2013-10-21 13:56:00,
2013-10-21 10:01:00,52.3,43.2,30.13,WSW,250,0.0,0.0,71,0.00,,---,0.00,VWS V14.01,2013-10-21 14:01:00,
2013-10-21 10:06:00,52.5,42.3,30.13,WSW,248,0.0,0.0,68,0.00,,---,0.00,VWS V14.01,2013-10-21 14:06:00,
2013-10-21 10:11:00,52.7,42.8,30.13,SE,140,0.0,0.0,69,0.00,,---,0.00,VWS V14.01,2013-10-21 14:11:00,
2013-10-21 10:16:00,52.8,42.5,30.12,SE,139,0.0,0.0,68,0.00,,---,0.00,VWS V14.01,2013-10-21 14:16:00,
2013-10-21 10:21:00,53.0,42.7,30.12,SE,139,0.0,0.0,68,0.00,,---,0.00,VWS V14.01,2013-10-21 14:21:00,
2013-10-21 10:26:00,53.3,43.8,30.12,SE,140,0.0,0.0,70,0.00,,---,0.00,VWS V14.01,2013-10-21 14:26:00,
2013-10-21 10:32:00,53.4,43.5,30.12,SE,140,0.0,0.0,69,0.00,,---,0.00,VWS V14.01,2013-10-21 14:32:00,
2013-10-21 10:37:00,53.6,43.7,30.12,SE,140,0.0,0.0,69,0.00,,---,0.00,VWS V14.01,2013-10-21 14:37:00,
2013-10-21 10:42:00,53.9,43.6,30.12,SE,140,0.0,0.0,68,0.00,,---,0.00,VWS V14.01,2013-10-21 14:42:00,
2013-10-21 10:47:00,54.1,43.0,30.12,SE,139,0.0,0.0,66,0.00,,---,0.00,VWS V14.01,2013-10-21 14:47:00,
2013-10-21 10:52:00,54.7,43.2,30.11,SE,138,0.0,0.0,65,0.00,,---,0.00,VWS V14.01,2013-10-21 14:52:00,
2013-10-21 10:57:00,55.1,43.6,30.11,SE,139,0.0,0.0,65,0.00,,---,0.00,VWS V14.01,2013-10-21 14:57:00,
2013-10-21 11:02:00,55.5,43.9,30.11,SE,139,0.0,0.0,65,0.00,,---,0.00,VWS V14.01,2013-10-21 15:02:00,
2013-10-21 11:07:00,55.9,43.5,30.11,East,91,0.0,0.0,63,0.00,,---,0.00,VWS V14.01,2013-10-21 15:07:00,
2013-10-21 11:12:00,56.2,44.6,30.11,ENE,67,0.0,0.0,65,0.00,,---,0.00,VWS V14.01,2013-10-21 15:12:00,
2013-10-21 11:17:00,56.4,44.4,30.11,East,79,0.0,0.0,64,0.00,,---,0.00,VWS V14.01,2013-10-21 15:17:00,
2013-10-21 11:22:00,56.7,45.5,30.11,East,92,0.0,0.0,66,0.00,,---,0.00,VWS V14.01,2013-10-21 15:22:00,
2013-10-21 11:27:00,57.2,45.2,30.11,NE,54,1.0,3.0,64,0.00,,---,0.00,VWS V14.01,2013-10-21 15:27:00,
2013-10-21 11:32:00,57.2,45.2,30.10,ESE,105,2.0,2.0,64,0.00,,---,0.00,VWS V14.01,2013-10-21 15:32:00,
2013-10-21 11:37:00,57.6,45.9,30.10,SE,128,0.0,2.0,65,0.00,,---,0.00,VWS V14.01,2013-10-21 15:37:00,
2013-10-21 11:42:00,57.9,45.8,30.10,East,101,0.0,1.0,64,0.00,,---,0.00,VWS V14.01,2013-10-21 15:42:00,
2013-10-21 11:47:00,58.4,46.3,30.10,East,101,0.0,0.0,64,0.00,,---,0.00,VWS V14.01,2013-10-21 15:47:00,
2013-10-21 11:52:00,58.8,46.2,30.10,ENE,73,2.0,2.0,63,0.00,,---,0.00,VWS V14.01,2013-10-21 15:52:00,
2013-10-21 11:57:00,59.1,45.2,30.10,East,101,1.0,2.0,60,0.00,,---,0.00,VWS V14.01,2013-10-21 15:57:00,
2013-10-21 12:02:00,59.5,45.6,30.10,East,91,0.0,0.0,60,0.00,,---,0.00,VWS V14.01,2013-10-21 16:02:00,
2013-10-21 12:08:00,60.0,45.7,30.09,ESE,106,1.0,1.0,59,0.00,,---,0.00,VWS V14.01,2013-10-21 16:08:00,
2013-10-21 12:13:00,60.5,45.2,30.09,ESE,103,0.0,1.0,57,0.00,,---,0.00,VWS V14.01,2013-10-21 16:13:00,
2013-10-21 12:18:00,60.6,45.3,30.09,East,87,0.0,1.0,57,0.00,,---,0.00,VWS V14.01,2013-10-21 16:18:00,
2013-10-21 12:23:00,60.9,46.0,30.09,NNE,33,2.0,3.0,58,0.00,,---,0.00,VWS V14.01,2013-10-21 16:23:00,
2013-10-21 12:28:00,61.1,46.7,30.08,ENE,58,2.0,2.0,59,0.00,,---,0.00,VWS V14.01,2013-10-21 16:28:00,
2013-10-21 12:33:00,61.0,45.2,30.08,East,85,0.0,2.0,56,0.00,,---,0.00,VWS V14.01,2013-10-21 16:33:00,
2013-10-21 12:38:00,61.3,46.0,30.08,NE,56,2.0,2.0,57,0.00,,---,0.00,VWS V14.01,2013-10-21 16:38:00,
2013-10-21 12:43:00,62.1,46.7,30.08,NNW,333,0.0,0.0,57,0.00,,---,0.00,VWS V14.01,2013-10-21 16:43:00,
2013-10-21 12:48:00,62.5,44.7,30.07,East,80,1.0,1.0,52,0.00,,---,0.00,VWS V14.01,2013-10-21 16:48:00,
2013-10-21 12:53:00,62.7,44.8,30.07,ENE,58,2.0,2.0,52,0.00,,---,0.00,VWS V14.01,2013-10-21 16:53:00,
2013-10-21 12:58:00,62.8,44.9,30.07,NE,53,0.0,1.0,52,0.00,,---,0.00,VWS V14.01,2013-10-21 16:58:00,
2013-10-21 13:03:00,63.2,44.8,30.06,SSE,148,0.0,1.0,51,0.00,,---,0.00,VWS V14.01,2013-10-21 17:03:00,
2013-10-21 13:09:00,63.4,45.0,30.06,ESE,118,2.0,2.0,51,0.00,,---,0.00,VWS V14.01,2013-10-21 17:09:00,
2013-10-21 13:14:00,63.3,44.4,30.06,North,11,0.0,5.0,50,0.00,,---,0.00,VWS V14.01,2013-10-21 17:14:00,
2013-10-21 13:19:00,63.2,45.3,30.05,ENE,72,1.0,1.0,52,0.00,,---,0.00,VWS V14.01,2013-10-21 17:19:00,
2013-10-21 13:24:00,63.1,44.7,30.05,ESE,105,2.0,2.0,51,0.00,,---,0.00,VWS V14.01,2013-10-21 17:24:00,
2013-10-21 13:29:00,63.3,45.4,30.05,SSE,148,1.0,2.0,52,0.00,,---,0.00,VWS V14.01,2013-10-21 17:29:00,
2013-10-21 13:34:00,63.2,45.3,30.05,SSE,158,0.0,0.0,52,0.00,,---,0.00,VWS V14.01,2013-10-21 17:34:00,
2013-10-21 13:39:00,63.4,46.0,30.04,SE,146,0.0,1.0,53,0.00,,---,0.00,VWS V14.01,2013-10-21 17:39:00,
2013-10-21 13:44:00,63.4,45.0,30.04,SE,136,0.0,2.0,51,0.00,,---,0.00,VWS V14.01,2013-10-21 17:44:00,
2013-10-21 13:49:00,63.2,44.8,30.03,ENE,78,2.0,3.0,51,0.00,,---,0.00,VWS V14.01,2013-10-21 17:49:00,
2013-10-21 13:54:00,63.0,42.5,30.03,East,82,2.0,3.0,47,0.00,,---,0.00,VWS V14.01,2013-10-21 17:54:00,
2013-10-21 14:00:00,62.9,43.5,30.03,East,90,0.0,0.0,49,0.00,,---,0.00,VWS V14.01,2013-10-21 18:00:00,
2013-10-21 14:05:00,62.9,42.4,30.02,ENE,68,2.0,2.0,47,0.00,,---,0.00,VWS V14.01,2013-10-21 18:05:00,
2013-10-21 14:10:00,62.6,43.7,30.03,South,177,0.0,0.0,50,0.00,,---,0.00,VWS V14.01,2013-10-21 18:10:00,
2013-10-21 14:15:00,62.6,42.1,30.02,SE,137,0.0,0.0,47,0.00,,---,0.00,VWS V14.01,2013-10-21 18:15:00,
2013-10-21 14:20:00,62.5,41.5,30.02,SSW,194,1.0,1.0,46,0.00,,---,0.00,VWS V14.01,2013-10-21 18:20:00,
2013-10-21 14:25:00,62.5,42.0,30.02,East,79,1.0,3.0,47,0.00,,---,0.00,VWS V14.01,2013-10-21 18:25:00,
2013-10-21 14:30:00,62.6,43.2,30.02,East,96,0.0,2.0,49,0.00,,---,0.00,VWS V14.01,2013-10-21 18:30:00,
2013-10-21 14:35:00,62.5,43.1,30.02,SE,146,2.0,3.0,49,0.00,,---,0.00,VWS V14.01,2013-10-21 18:35:00,
2013-10-21 14:40:00,62.3,41.8,30.02,East,91,0.0,3.0,47,0.00,,---,0.00,VWS V14.01,2013-10-21 18:40:00,
2013-10-21 14:45:00,62.3,41.8,30.02,ENE,68,0.0,2.0,47,0.00,,---,0.00,VWS V14.01,2013-10-21 18:45:00,
2013-10-21 14:50:00,62.3,41.8,30.01,ESE,104,0.0,1.0,47,0.00,,---,0.00,VWS V14.01,2013-10-21 18:50:00,
2013-10-21 14:55:00,62.2,42.3,30.01,East,94,1.0,2.0,48,0.00,,---,0.00,VWS V14.01,2013-10-21 18:55:00,
2013-10-21 15:00:00,62.0,41.6,30.01,East,89,2.0,2.0,47,0.00,,---,0.00,VWS V14.01,2013-10-21 19:00:00,
2013-10-21 15:05:00,62.1,42.2,30.01,South,172,0.0,4.0,48,0.00,,---,0.00,VWS V14.01,2013-10-21 19:05:00,
2013-10-21 15:10:00,62.1,42.7,30.00,SSE,160,1.0,2.0,49,0.00,,---,0.00,VWS V14.01,2013-10-21 19:10:00,
2013-10-21 15:15:00,61.8,42.5,30.00,SSE,167,0.0,1.0,49,0.00,,---,0.00,VWS V14.01,2013-10-21 19:15:00,
2013-10-21 15:20:00,61.6,42.3,30.00,ESE,121,0.0,0.0,49,0.00,,---,0.00,VWS V14.01,2013-10-21 19:20:00,
2013-10-21 15:26:00,61.5,41.1,30.00,SE,131,0.0,0.0,47,0.00,,---,0.00,VWS V14.01,2013-10-21 19:26:00,
2013-10-21 15:31:00,61.4,42.1,30.00,North,353,0.0,2.0,49,0.00,,---,0.00,VWS V14.01,2013-10-21 19:31:00,
2013-10-21 15:36:00,61.4,42.6,30.00,ESE,103,0.0,1.0,50,0.00,,---,0.00,VWS V14.01,2013-10-21 19:36:00,
2013-10-21 15:41:00,61.3,41.5,29.99,SE,139,1.0,1.0,48,0.00,,---,0.00,VWS V14.01,2013-10-21 19:41:00,
2013-10-21 15:46:00,61.2,41.9,29.99,SE,143,0.0,1.0,49,0.00,,---,0.00,VWS V14.01,2013-10-21 19:46:00,
2013-10-21 15:51:00,61.0,43.8,29.99,SE,136,0.0,1.0,53,0.00,,---,0.00,VWS V14.01,2013-10-21 19:51:00,
2013-10-21 15:56:00,60.7,43.5,29.99,ESE,109,0.0,2.0,53,0.00,,---,0.00,VWS V14.01,2013-10-21 19:56:00,
2013-10-21 16:01:00,60.5,42.8,29.99,SE,143,0.0,0.0,52,0.00,,---,0.00,VWS V14.01,2013-10-21 20:01:00,
2013-10-21 16:06:00,60.5,41.8,29.98,ENE,65,1.0,2.0,50,0.00,,---,0.00,VWS V14.01,2013-10-21 20:06:00,
2013-10-21 16:11:00,60.4,41.7,29.98,SE,130,0.0,1.0,50,0.00,,---,0.00,VWS V14.01,2013-10-21 20:11:00,
2013-10-21 16:16:00,60.3,41.1,29.98,SSW,208,0.0,2.0,49,0.00,,---,0.00,VWS V14.01,2013-10-21 20:16:00,
2013-10-21 16:21:00,60.1,41.9,29.98,East,91,0.0,0.0,51,0.00,,---,0.00,VWS V14.01,2013-10-21 20:21:00,
2013-10-21 16:26:00,60.0,41.8,29.98,East,95,0.0,0.0,51,0.00,,---,0.00,VWS V14.01,2013-10-21 20:26:00,
2013-10-21 16:32:00,59.8,42.2,29.98,SSE,167,0.0,0.0,52,0.00,,---,0.00,VWS V14.01,2013-10-21 20:32:00,
2013-10-21 16:37:00,59.7,41.0,29.98,South,170,0.0,1.0,50,0.00,,---,0.00,VWS V14.01,2013-10-21 20:37:00,
2013-10-21 16:42:00,59.6,41.0,29.98,SSE,150,3.0,3.0,50,0.00,,---,0.00,VWS V14.01,2013-10-21 20:42:00,
2013-10-21 16:47:00,59.6,41.0,29.98,ESE,112,0.0,1.0,50,0.00,,---,0.00,VWS V14.01,2013-10-21 20:47:00,
2013-10-21 16:52:00,59.4,40.8,29.98,SE,143,0.0,0.0,50,0.00,,---,0.00,VWS V14.01,2013-10-21 20:52:00,
2013-10-21 16:57:00,59.4,41.3,29.98,SE,134,0.0,0.0,51,0.00,,---,0.00,VWS V14.01,2013-10-21 20:57:00,
2013-10-21 17:02:00,59.2,42.6,29.98,North,358,0.0,0.0,54,0.00,,---,0.00,VWS V14.01,2013-10-21 21:02:00,
2013-10-21 17:07:00,59.0,42.4,29.98,ESE,108,3.0,3.0,54,0.00,,---,0.00,VWS V14.01,2013-10-21 21:07:00,
2013-10-21 17:12:00,58.9,41.8,29.98,East,95,0.0,2.0,53,0.00,,---,0.00,VWS V14.01,2013-10-21 21:12:00,
2013-10-21 17:17:00,58.8,41.7,29.98,SE,146,0.0,1.0,53,0.00,,---,0.00,VWS V14.01,2013-10-21 21:17:00,
2013-10-21 17:22:00,58.6,42.0,29.98,SE,133,0.0,0.0,54,0.00,,---,0.00,VWS V14.01,2013-10-21 21:22:00,
2013-10-21 17:27:00,58.4,41.8,29.98,ESE,105,1.0,1.0,54,0.00,,---,0.00,VWS V14.01,2013-10-21 21:27:00,
2013-10-21 17:32:00,58.2,41.7,29.98,ESE,114,0.0,0.0,54,0.00,,---,0.00,VWS V14.01,2013-10-21 21:32:00,
2013-10-21 17:37:00,58.2,42.1,29.98,SSE,159,1.0,1.0,55,0.00,,---,0.00,VWS V14.01,2013-10-21 21:37:00,
2013-10-21 17:42:00,58.2,41.7,29.98,ESE,119,0.0,0.0,54,0.00,,---,0.00,VWS V14.01,2013-10-21 21:42:00,
2013-10-21 17:48:00,58.1,42.0,29.98,SSE,156,0.0,0.0,55,0.00,,---,0.00,VWS V14.01,2013-10-21 21:48:00,
2013-10-21 17:53:00,57.9,41.4,29.98,SE,142,0.0,0.0,54,0.00,,---,0.00,VWS V14.01,2013-10-21 21:53:00,
2013-10-21 17:58:00,57.8,42.2,29.99,SSE,154,1.0,1.0,56,0.00,,---,0.00,VWS V14.01,2013-10-21 21:58:00,
2013-10-21 18:03:00,57.7,42.1,29.99,SSE,150,0.0,1.0,56,0.00,,---,0.00,VWS V14.01,2013-10-21 22:03:00,
2013-10-21 18:08:00,57.5,42.4,29.98,ESE,106,0.0,1.0,57,0.00,,---,0.00,VWS V14.01,2013-10-21 22:08:00,
2013-10-21 18:13:00,57.5,42.4,29.99,SE,125,0.0,0.0,57,0.00,,---,0.00,VWS V14.01,2013-10-21 22:13:00,
2013-10-21 18:18:00,57.4,42.3,29.99,SE,143,0.0,1.0,57,0.00,,---,0.00,VWS V14.01,2013-10-21 22:18:00,
2013-10-21 18:23:00,57.2,42.1,29.99,SE,138,0.0,1.0,57,0.00,,---,0.00,VWS V14.01,2013-10-21 22:23:00,
2013-10-21 18:28:00,57.0,42.4,29.99,SSE,155,0.0,0.0,58,0.00,,---,0.00,VWS V14.01,2013-10-21 22:28:00,
2013-10-21 18:33:00,56.7,42.1,29.99,SE,142,0.0,0.0,58,0.00,,---,0.00,VWS V14.01,2013-10-21 22:33:00,
2013-10-21 18:38:00,56.5,42.8,29.99,SE,143,0.0,1.0,60,0.00,,---,0.00,VWS V14.01,2013-10-21 22:38:00,
2013-10-21 18:44:00,56.2,43.8,29.99,SE,146,0.0,0.0,63,0.00,,---,0.00,VWS V14.01,2013-10-21 22:44:00,
2013-10-21 18:49:00,56.0,43.2,29.99,SSE,154,0.0,0.0,62,0.00,,---,0.00,VWS V14.01,2013-10-21 22:49:00,
2013-10-21 18:54:00,55.8,43.4,29.99,SE,146,0.0,0.0,63,0.00,,---,0.00,VWS V14.01,2013-10-21 22:54:00,
2013-10-21 18:59:00,55.6,43.6,29.99,ESE,117,0.0,0.0,64,0.00,,---,0.00,VWS V14.01,2013-10-21 22:59:00,
2013-10-21 19:04:00,55.5,43.5,29.99,SE,146,0.0,0.0,64,0.00,,---,0.00,VWS V14.01,2013-10-21 23:04:00,
2013-10-21 19:09:00,55.4,43.4,29.99,SSE,152,0.0,0.0,64,0.00,,---,0.00,VWS V14.01,2013-10-21 23:09:00,
2013-10-21 19:14:00,55.3,42.9,29.99,SE,137,0.0,1.0,63,0.00,,---,0.00,VWS V14.01,2013-10-21 23:14:00,
2013-10-21 19:19:00,55.2,42.8,29.99,SE,126,0.0,0.0,63,0.00,,---,0.00,VWS V14.01,2013-10-21 23:19:00,
2013-10-21 19:24:00,55.2,43.2,29.99,SE,143,0.0,0.0,64,0.00,,---,0.00,VWS V14.01,2013-10-21 23:24:00,
2013-10-21 19:29:00,55.1,42.8,29.99,SE,134,0.0,0.0,63,0.00,,---,0.00,VWS V14.01,2013-10-21 23:29:00,
2013-10-21 19:34:00,55.0,42.7,29.99,SE,140,0.0,0.0,63,0.00,,---,0.00,VWS V14.01,2013-10-21 23:34:00,
2013-10-21 19:39:00,54.9,42.6,29.98,SE,146,0.0,0.0,63,0.00,,---,0.00,VWS V14.01,2013-10-21 23:39:00,
2013-10-21 19:44:00,54.7,43.2,29.98,SE,146,0.0,0.0,65,0.00,,---,0.00,VWS V14.01,2013-10-21 23:44:00,
2013-10-21 19:49:00,54.5,43.0,29.98,SE,139,0.0,0.0,65,0.00,,---,0.00,VWS V14.01,2013-10-21 23:49:00,
2013-10-21 19:54:00,54.4,43.3,29.99,SE,134,0.0,0.0,66,0.00,,---,0.00,VWS V14.01,2013-10-21 23:54:00,
2013-10-21 19:59:00,54.2,42.7,29.99,SE,142,0.0,0.0,65,0.00,,---,0.00,VWS V14.01,2013-10-21 23:59:00,
2013-10-21 20:05:00,54.1,43.0,29.99,SE,139,0.0,0.0,66,0.00,,---,0.00,VWS V14.01,2013-10-22 00:05:00,
2013-10-21 20:10:00,54.0,42.9,29.99,ESE,118,0.0,0.0,66,0.00,,---,0.00,VWS V14.01,2013-10-22 00:10:00,
2013-10-21 20:15:00,53.9,42.8,29.99,ESE,115,0.0,0.0,66,0.00,,---,0.00,VWS V14.01,2013-10-22 00:15:00,
2013-10-21 20:20:00,53.8,42.7,29.99,SE,131,1.0,2.0,66,0.00,,---,0.00,VWS V14.01,2013-10-22 00:20:00,
2013-10-21 20:25:00,53.7,43.0,29.99,SE,129,1.0,1.0,67,0.00,,---,0.00,VWS V14.01,2013-10-22 00:25:00,
2013-10-21 20:30:00,53.6,42.5,29.99,SE,128,0.0,1.0,66,0.00,,---,0.00,VWS V14.01,2013-10-22 00:30:00,
2013-10-21 20:35:00,53.5,42.8,29.99,SE,142,2.0,2.0,67,0.00,,---,0.00,VWS V14.01,2013-10-22 00:35:00,
2013-10-21 20:40:00,53.4,43.1,29.99,SE,131,1.0,1.0,68,0.00,,---,0.00,VWS V14.01,2013-10-22 00:40:00,
2013-10-21 20:45:00,53.3,43.4,29.98,SE,128,0.0,1.0,69,0.00,,---,0.00,VWS V14.01,2013-10-22 00:45:00,
2013-10-21 20:50:00,53.3,43.4,29.98,SE,124,0.0,1.0,69,0.00,,---,0.00,VWS V14.01,2013-10-22 00:50:00,
2013-10-21 20:55:00,53.2,43.7,29.98,SE,128,1.0,1.0,70,0.00,,---,0.00,VWS V14.01,2013-10-22 00:55:00,
2013-10-21 21:00:00,53.2,43.7,29.98,SE,128,0.0,1.0,70,0.00,,---,0.00,VWS V14.01,2013-10-22 01:00:00,
2013-10-21 21:05:00,53.1,43.6,29.97,SE,134,0.0,0.0,70,0.00,,---,0.00,VWS V14.01,2013-10-22 01:05:00,
2013-10-21 21:11:00,53.1,43.6,29.97,ESE,108,0.0,0.0,70,0.00,,---,0.00,VWS V14.01,2013-10-22 01:11:00,
2013-10-21 21:16:00,52.9,43.8,29.97,ENE,64,0.0,2.0,71,0.00,,---,0.00,VWS V14.01,2013-10-22 01:16:00,
2013-10-21 21:21:00,52.8,43.7,29.97,East,98,0.0,0.0,71,0.00,,---,0.00,VWS V14.01,2013-10-22 01:21:00,
2013-10-21 21:26:00,52.6,43.5,29.97,ESE,113,0.0,0.0,71,0.00,,---,0.00,VWS V14.01,2013-10-22 01:26:00,
2013-10-21 21:31:00,52.5,43.4,29.96,SE,128,0.0,2.0,71,0.00,,---,0.00,VWS V14.01,2013-10-22 01:31:00,
2013-10-21 21:36:00,52.5,43.8,29.96,East,94,0.0,3.0,72,0.00,,---,0.00,VWS V14.01,2013-10-22 01:36:00,
2013-10-21 21:41:00,52.5,43.8,29.96,ESE,118,0.0,1.0,72,0.00,,---,0.00,VWS V14.01,2013-10-22 01:41:00,
2013-10-21 21:46:00,52.4,43.7,29.96,East,98,0.0,1.0,72,0.00,,---,0.00,VWS V14.01,2013-10-22 01:46:00,
2013-10-21 21:51:00,52.4,43.7,29.96,SE,131,1.0,2.0,72,0.00,,---,0.00,VWS V14.01,2013-10-22 01:51:00,
2013-10-21 21:54:00,52.4,44.0,29.96,ESE,114,0.0,1.0,73,0.00,,---,0.00,VWS V14.01,2013-10-22 01:54:00,
2013-10-21 21:59:00,52.4,44.0,29.96,SE,128,0.0,1.0,73,0.00,,---,0.00,VWS V14.01,2013-10-22 01:59:00,
2013-10-21 22:04:00,52.2,43.5,29.96,ESE,120,1.0,1.0,72,0.00,,---,0.00,VWS V14.01,2013-10-22 02:04:00,
2013-10-21 22:09:00,52.3,43.9,29.96,East,98,0.0,2.0,73,0.00,,---,0.00,VWS V14.01,2013-10-22 02:09:00,
2013-10-21 22:14:00,52.1,43.7,29.95,SE,142,1.0,3.0,73,0.00,,---,0.00,VWS V14.01,2013-10-22 02:14:00,
2013-10-21 22:19:00,52.1,43.7,29.95,East,93,1.0,2.0,73,0.00,,---,0.00,VWS V14.01,2013-10-22 02:19:00,
2013-10-21 22:24:00,52.1,43.7,29.95,ESE,110,1.0,2.0,73,0.00,,---,0.00,VWS V14.01,2013-10-22 02:24:00,
2013-10-21 22:29:00,52.0,44.0,29.95,SE,136,0.0,1.0,74,0.00,,---,0.00,VWS V14.01,2013-10-22 02:29:00,
2013-10-21 22:34:00,51.9,43.9,29.95,ESE,105,1.0,2.0,74,0.00,,---,0.00,VWS V14.01,2013-10-22 02:34:00,
2013-10-21 22:39:00,51.8,43.8,29.96,ESE,104,0.0,2.0,74,0.00,,---,0.00,VWS V14.01,2013-10-22 02:39:00,
2013-10-21 22:44:00,51.8,43.8,29.95,East,95,0.0,3.0,74,0.00,,---,0.00,VWS V14.01,2013-10-22 02:44:00,
2013-10-21 22:49:00,51.7,43.7,29.96,ESE,105,1.0,2.0,74,0.00,,---,0.00,VWS V14.01,2013-10-22 02:49:00,
2013-10-21 22:54:00,51.7,43.7,29.95,East,100,0.0,1.0,74,0.00,,---,0.00,VWS V14.01,2013-10-22 02:54:00,
2013-10-21 22:59:00,51.6,44.0,29.95,ESE,109,1.0,1.0,75,0.00,,---,0.00,VWS V14.01,2013-10-22 02:59:00,
2013-10-21 23:04:00,51.4,43.8,29.95,SE,126,0.0,1.0,75,0.00,,---,0.00,VWS V14.01,2013-10-22 03:04:00,
2013-10-21 23:09:00,51.3,43.7,29.95,SE,146,0.0,2.0,75,0.00,,---,0.00,VWS V14.01,2013-10-22 03:09:00,
2013-10-21 23:14:00,51.2,43.6,29.95,SE,128,0.0,1.0,75,0.00,,---,0.00,VWS V14.01,2013-10-22 03:14:00,
2013-10-21 23:19:00,51.0,43.7,29.95,SE,129,0.0,1.0,76,0.00,,---,0.00,VWS V14.01,2013-10-22 03:19:00,
2013-10-21 23:24:00,50.9,43.6,29.95,ESE,110,0.0,0.0,76,0.00,,---,0.00,VWS V14.01,2013-10-22 03:24:00,
2013-10-21 23:29:00,50.8,43.5,29.94,SE,128,0.0,0.0,76,0.00,,---,0.00,VWS V14.01,2013-10-22 03:29:00,
2013-10-21 23:34:00,50.6,43.7,29.94,SE,128,1.0,1.0,77,0.00,,---,0.00,VWS V14.01,2013-10-22 03:34:00,
2013-10-21 23:39:00,50.5,43.6,29.94,SE,145,0.0,1.0,77,0.00,,---,0.00,VWS V14.01,2013-10-22 03:39:00,
2013-10-21 23:44:00,50.4,43.8,29.94,SE,145,0.0,0.0,78,0.00,,---,0.00,VWS V14.01,2013-10-22 03:44:00,
2013-10-21 23:50:00,50.3,43.7,29.94,SE,137,0.0,1.0,78,0.00,,---,0.00,VWS V14.01,2013-10-22 03:50:00,
2013-10-21 23:55:00,50.1,43.8,29.93,SE,124,0.0,0.0,79,0.00,,---,0.00,VWS V14.01,2013-10-22 03:55:00,